Orbital Elements
The following orbital elements are taken from MPC 67684:
Epoch 2009 Nov. 25.0 TT = JDT 2455160.5
T 2009 Nov. 19.9224 TT MPC
q 1.320848 (2000.0) P Q
n 0.1772925 Peri. 320.0119 +0.0311222 -0.9881034
a 3.138166 Node 127.6718 +0.9587887 -0.0130617
e 0.579102 Incl. 10.9690 +0.2824105 +0.1532355
P 5.56
From 352 observations 2009 Aug. 26-Nov. 29, mean residual 0".6.
|